EW6413 Weather Reports


time (UTC)temp
C
wind
direction
speed
KPH
gust
KPH
rain 1hr
cm
rain 24hr
cm
rain mn
cm
humidity
%
barometer
mb
20260503181500 15 284 4.8 14.5 0.00 0.00 0.00 76 1012.2
20260503181002 14 289 4.8 14.5 0.00 0.00 0.00 78 1012.1
20260503180501 14 285 3.2 9.7 0.00 0.00 0.00 79 1012.2
20260503180001 13 276 3.2 6.4 0.00 0.00 0.00 79 1012.2
20260503175501 13 53 1.6 6.4 0.00 0.00 0.00 82 1012.3
20260503175001 13 276 3.2 6.4 0.00 0.00 0.00 82 1012.3
20260503173958 14 286 1.6 6.4 0.00 0.00 0.00 81 1012.2
20260503173717 14 287 1.6 6.4 0.00 0.00 0.00 80 1012.1
20260503172959 14 294 3.2 6.4 0.00 0.00 0.00 80 1012.0
20260503172455 14 292 3.2 6.4 0.00 0.00 0.00 79 1011.9
20260503171956 14 253 3.2 8.0 0.00 0.00 0.00 79 1011.9
20260503171456 14 262 3.2 8.0 0.00 0.00 0.00 78 1011.9
20260503170956 13 273 3.2 6.4 0.00 0.00 0.00 78 1011.9
20260503170715 13 0 3.2 4.8 0.00 0.00 0.00 79 1011.9
20260503150926 12 4 1.6 3.2 0.00 0.00 0.00 81 1011.5
20260503150645 12 57 1.6 3.2 0.00 0.00 0.00 82 1011.5
20260503150143 12 79 1.6 4.8 0.00 0.00 0.00 82 1011.5
20260503131357 11 32 3.2 6.4 0.00 0.00 0.00 84 1010.3
20260503130857 11 0 3.2 3.2 0.00 0.00 0.00 84 1010.3
20260503130358 11 267 3.2 4.8 0.00 0.00 0.00 84 1010.2
20260503110814 11 305 3.2 4.8 0.00 0.00 0.00 83 1010.2
20260503110300 11 205 3.2 4.8 0.00 0.00 0.00 83 1010.1
20260503100249 11 271 3.2 8.0 0.00 0.00 0.00 83 1010.1
20260503090248 11 255 3.2 8.0 0.00 0.00 0.00 84 1010.4
20260503081236 12 280 3.2 6.4 0.00 0.00 0.00 85 1010.8
20260503080735 12 17 3.2 6.4 0.00 0.00 0.00 85 1010.9
20260503080236 12 359 3.2 9.7 0.00 0.00 0.00 85 1011.0
20260503072230 12 276 1.6 4.8 0.00 0.00 0.00 84 1011.0
20260503071731 12 272 1.6 6.4 0.00 0.00 0.00 84 1011.0
20260503071231 12 270 3.2 6.4 0.00 0.00 0.00 84 1011.0
20260503070730 12 2 3.2 6.4 0.00 0.00 0.00 84 1011.1
20260503070231 12 266 1.6 6.4 0.00 0.00 0.00 84 1011.1
20260503060226 12 0 1.6 4.8 0.00 0.00 0.00 83 1011.3
20260503054723 12 64 3.2 8.0 0.00 0.00 0.00 83 1011.5
20260503054223 12 231 3.2 6.4 0.00 0.00 0.00 84 1011.5
20260503053720 12 248 3.2 8.0 0.00 0.00 0.00 84 1011.5
20260503053221 12 275 3.2 8.0 0.00 0.00 0.00 84 1011.5
20260503052720 12 281 1.6 6.4 0.00 0.00 0.00 84 1011.5
20260503052446 12 0 1.6 4.8 0.00 0.00 0.00 84 1011.5
20260503051720 12 0 1.6 3.2 0.00 0.00 0.00 84 1011.5
20260503051220 12 359 1.6 4.8 0.00 0.00 0.00 84 1011.5
20260503050721 12 0 1.6 4.8 0.00 0.00 0.00 84 1011.6
20260503050221 12 268 1.6 4.8 0.00 0.00 0.00 84 1011.4
20260503045722 12 288 1.6 4.8 0.00 0.00 0.00 84 1011.4
20260503045221 12 259 3.2 6.4 0.00 0.00 0.00 84 1011.4
20260503044718 12 253 3.2 6.4 0.00 0.00 0.00 84 1011.3
20260503044218 12 168 1.6 6.4 0.00 0.00 0.00 84 1011.3
20260503043719 12 351 1.6 6.4 0.00 0.00 0.00 84 1011.3
20260503043216 12 274 1.6 6.4 0.00 0.00 0.00 84 1011.2
20260503042716 12 0 1.6 4.8 0.00 0.00 0.00 84 1011.3
20260503042216 12 282 1.6 3.2 0.00 0.00 0.00 84 1011.2
20260503041716 12 268 1.6 6.4 0.00 0.00 0.00 84 1011.1
20260503041216 12 243 1.6 6.4 0.00 0.00 0.00 84 1011.0
20260503040716 12 252 1.6 6.4 0.00 0.00 0.00 84 1011.1
20260503040216 12 347 3.2 6.4 0.00 0.00 0.00 84 1011.1
20260503035714 12 34 3.2 6.4 0.00 0.00 0.00 85 1011.0
20260503035214 12 251 3.2 6.4 0.00 0.00 0.00 85 1011.0
20260503034713 12 265 3.2 6.4 0.00 0.00 0.00 85 1011.1
20260503034213 12 271 1.6 6.4 0.00 0.00 0.00 85 1011.0
20260503033714 12 256 1.6 4.8 0.00 0.00 0.00 85 1011.0
20260503033213 12 269 1.6 4.8 0.00 0.00 0.00 85 1010.9
20260503032714 12 288 1.6 6.4 0.00 0.00 0.00 85 1010.9
20260503032214 12 285 3.2 6.4 0.00 0.00 0.00 84 1010.8
20260503031714 12 270 1.6 6.4 0.00 0.00 0.00 85 1010.7
20260503031214 12 287 3.2 6.4 0.00 0.00 0.00 84 1010.6
20260503030711 12 285 3.2 6.4 0.00 0.00 0.00 84 1010.6
20260503030211 12 296 1.6 6.4 0.00 0.00 0.00 84 1010.6
20260503025712 12 5 1.6 6.4 0.00 0.00 0.00 84 1010.5
20260503025432 12 282 1.6 6.4 0.00 0.00 0.00 84 1010.5
20260503024712 12 0 1.6 8.0 0.00 0.00 0.00 84 1010.5
20260503024208 12 236 3.2 9.7 0.00 0.00 0.00 84 1010.4
20260503023931 12 264 3.2 9.7 0.00 0.00 0.00 84 1010.4
20260503023209 12 115 3.2 6.4 0.00 0.00 0.00 83 1010.4
20260503022709 12 269 3.2 6.4 0.00 0.00 0.00 83 1010.4
20260503022210 12 264 3.2 6.4 0.00 0.00 0.00 83 1010.4
20260503021709 12 268 3.2 6.4 0.00 0.00 0.00 82 1010.4
20260503021209 12 305 3.2 6.4 0.00 0.00 0.00 82 1010.4
20260503020709 12 273 1.6 6.4 0.00 0.00 0.00 82 1010.5
20260503020206 12 346 3.2 6.4 0.00 0.00 0.00 81 1010.5
20260503015707 12 266 3.2 9.7 0.00 0.00 0.00 81 1010.4
20260503015203 13 318 3.2 9.7 0.00 0.00 0.00 80 1010.5
20260503014704 13 280 3.2 11.3 0.00 0.00 0.00 80 1010.5
20260503014203 13 300 3.2 11.3 0.00 0.00 0.00 80 1010.5
20260503013704 13 274 3.2 9.7 0.00 0.00 0.00 79 1010.4
20260503013204 13 269 3.2 14.5 0.00 0.00 0.00 79 1010.5
20260503012704 13 252 4.8 14.5 0.00 0.00 0.00 79 1010.5
20260503012204 13 306 3.2 14.5 0.00 0.00 0.00 78 1010.5
20260503011704 13 293 3.2 9.7 0.00 0.00 0.00 78 1010.5
20260503011204 13 301 3.2 8.0 0.00 0.00 0.00 78 1010.5
20260503010704 13 279 3.2 6.4 0.00 0.00 0.00 77 1010.5
20260503010421 13 300 3.2 11.3 0.00 0.00 0.00 77 1010.5
20260503005701 14 320 4.8 11.3 0.00 0.00 0.00 77 1010.5
20260503005420 14 280 4.8 11.3 0.00 0.00 0.00 77 1010.5
20260503004702 14 271 4.8 11.3 0.00 0.00 0.00 77 1010.5
20260503004202 14 359 3.2 12.9 0.00 0.00 0.00 76 1010.5
20260503003703 14 288 4.8 12.9 0.00 0.00 0.00 76 1010.5
20260503003202 14 268 4.8 11.3 0.00 0.00 0.00 77 1010.5
20260503002702 15 269 4.8 9.7 0.00 0.00 0.00 76 1010.5
20260503002202 15 64 4.8 12.9 0.00 0.00 0.00 75 1010.6
20260503001703 15 287 6.4 12.9 0.00 0.00 0.00 75 1010.6
20260503001202 15 0 4.8 14.5 0.00 0.00 0.00 75 1010.6
20260503000703 15 251 4.8 14.5 0.00 0.00 0.00 73 1010.6
20260503000211 15 281 4.8 14.5 0.00 0.00 0.00 72 1010.6
20260502235918 16 283 4.8 14.5 0.00 0.00 0.00 72 1010.6
20260502235200 16 285 3.2 9.7 0.00 0.00 0.00 72 1010.6
20260502234700 16 228 3.2 9.7 0.00 0.00 0.00 72 1010.7
20260502234159 15 294 4.8 11.3 0.00 0.00 0.00 73 1010.8
20260502233201 15 273 6.4 11.3 0.00 0.00 0.00 72 1010.8
20260502232700 15 316 6.4 11.3 0.00 0.00 0.00 73 1010.9
20260502232200 16 279 4.8 11.3 0.00 0.00 0.00 73 1011.0
20260502231918 16 343 3.2 11.3 0.00 0.00 0.00 71 1011.0
20260502231418 16 296 3.2 9.7 0.00 0.00 0.00 72 1011.0
20260502230655 16 105 4.8 12.9 0.00 0.00 0.00 70 1011.1
20260502230154 16 292 4.8 16.1 0.00 0.00 0.00 71 1011.3
20260502225654 16 276 4.8 16.1 0.00 0.00 0.00 71 1011.3
20260502225155 17 278 3.2 9.7 0.00 0.00 0.00 69 1011.3
20260502224655 17 282 3.2 11.3 0.00 0.00 0.00 70 1011.3
20260502224155 17 46 3.2 11.3 0.00 0.00 0.00 69 1011.4
20260502223655 16 281 4.8 11.3 0.00 0.00 0.00 70 1011.5
20260502223155 16 149 4.8 11.3 0.00 0.00 0.00 71 1011.6
20260502222655 16 284 4.8 11.3 0.00 0.00 0.00 69 1011.6
20260502222155 16 255 4.8 11.3 0.00 0.00 0.00 71 1011.6
20260502221656 16 284 4.8 12.9 0.00 0.00 0.00 70 1011.7
20260502221152 16 286 4.8 12.9 0.00 0.00 0.00 70 1011.8
20260502220652 16 268 4.8 12.9 0.00 0.00 0.00 71 1011.8
20260502220414 16 263 4.8 12.9 0.00 0.00 0.00 71 1011.9
20260502215653 16 285 4.8 11.3 0.00 0.00 0.00 72 1011.9
20260502215153 15 292 4.8 11.3 0.00 0.00 0.00 72 1012.0
20260502214653 15 299 4.8 12.9 0.00 0.00 0.00 73 1012.0
20260502214154 15 355 4.8 12.9 0.00 0.00 0.00 74 1012.0
20260502213653 15 280 4.8 11.3 0.00 0.00 0.00 74 1012.0
20260502213153 15 293 4.8 14.5 0.00 0.00 0.00 74 1012.0
20260502212653 15 252 4.8 14.5 0.00 0.00 0.00 73 1012.0
20260502212154 15 285 4.8 12.9 0.00 0.00 0.00 74 1012.1
20260502211653 15 285 4.8 12.9 0.00 0.00 0.00 75 1012.1
20260502211406 14 334 4.8 11.3 0.00 0.00 0.00 77 1012.2
20260502210647 14 272 4.8 11.3 0.00 0.00 0.00 77 1012.4
20260502210147 14 285 4.8 9.7 0.00 0.00 0.00 78 1012.4
20260502205648 14 309 4.8 9.7 0.00 0.00 0.00 78 1012.4
20260502205148 14 277 4.8 16.1 0.00 0.00 0.00 78 1012.5
20260502204647 14 283 4.8 16.1 0.00 0.00 0.00 79 1012.5
20260502204148 14 280 4.8 11.3 0.00 0.00 0.00 79 1012.6
20260502203648 14 282 4.8 9.7 0.00 0.00 0.00 79 1012.6
20260502203148 14 272 4.8 9.7 0.00 0.00 0.00 80 1012.7
20260502202649 14 264 6.4 9.7 0.00 0.00 0.00 79 1012.7
20260502202148 14 268 4.8 9.7 0.00 0.00 0.00 80 1012.7
20260502201646 14 271 4.8 9.7 0.00 0.00 0.00 81 1012.9
20260502201145 14 268 4.8 9.7 0.00 0.00 0.00 80 1012.9
20260502200146 14 273 4.8 9.7 0.00 0.00 0.00 80 1012.9
20260502195646 14 268 4.8 9.7 0.00 0.00 0.00 80 1012.9
20260502194909 13 234 3.2 6.4 0.00 0.00 0.00 81 1012.9
20260502194146 13 265 3.2 9.7 0.00 0.00 0.00 82 1013.0
20260502193645 13 101 3.2 9.7 0.00 0.00 0.00 83 1013.1
20260502193144 13 298 3.2 6.4 0.00 0.00 0.00 83 1013.0
20260502192645 13 287 3.2 8.0 0.00 0.00 0.00 83 1013.0
20260502192135 13 267 3.2 8.0 0.00 0.00 0.00 84 1013.0
20260502191116 13 318 3.2 6.4 0.00 0.00 0.00 85 1013.1
20260502190617 13 314 3.2 6.4 0.00 0.00 0.00 85 1013.1
20260502190337 13 275 3.2 6.4 0.00 0.00 0.00 85 1013.1
20260502185618 13 293 3.2 6.4 0.00 0.00 0.00 85 1013.1
20260502185119 13 277 3.2 6.4 0.00 0.00 0.00 84 1013.1
20260502184840 13 278 3.2 8.0 0.00 0.00 0.00 84 1013.0
20260502184337 13 288 4.8 8.0 0.00 0.00 0.00 84 1013.0
20260502183617 13 277 4.8 8.0 0.00 0.00 0.00 85 1013.0
20260502183116 12 242 3.2 8.0 0.00 0.00 0.00 85 1013.1
20260502182617 12 27 3.2 6.4 0.00 0.00 0.00 86 1013.1
20260502182117 12 273 3.2 8.0 0.00 0.00 0.00 86 1013.1